When you browse on this site, cookies collect data to enhance your experience and personalize the content and advertising you see.
Visit our Privacy Policy to learn more. By continuing to use the site, you agree to this use of cookies and data.
  • In Czech Republic
  • List of Countries
  • For 7 days
  • Water Temperature
  • Satellite Maps
  • Weather Map
  • Weather Widgets
  • user-avatar
    Login

    Hourly Weather Middletown

    Today, 23 July, Tuesday

    Time Temperature Precipitation Wind Pressure Humidity
    00:00 +20°C° 0.5 mm 2 mps 753 mmHg 95%
    01:00 +21°C° 0.5 mm 1 mps 753 mmHg 96%
    02:00 +21°C° 1.7 mm 1 mps 753 mmHg 96%
    03:00 +20°C° 1.7 mm 2 mps 753 mmHg 97%
    04:00 +20°C° 1.7 mm 2 mps 753 mmHg 97%
    05:00 +20°C° 3.6 mm 2 mps 753 mmHg 97%
    06:00 +20°C° 3.6 mm 3 mps 753 mmHg 96%
    07:00 +20°C° 3.6 mm 3 mps 754 mmHg 96%
    08:00 +20°C° 6 mm 3 mps 754 mmHg 95%
    09:00 +20°C° 6 mm 3 mps 754 mmHg 95%
    10:00 +20°C° 6 mm 3 mps 754 mmHg 94%
    11:00 +21°C° 0 mm 3 mps 755 mmHg 89%
    12:00 +21°C° 0 mm 3 mps 755 mmHg 83%
    13:00 +22°C° 0 mm 3 mps 756 mmHg 78%
    14:00 +23°C° 0 mm 2 mps 756 mmHg 77%
    15:00 +24°C° 0 mm 2 mps 756 mmHg 76%
    16:00 +24°C° 0 mm 1 mps 756 mmHg 75%
    17:00 +23°C° 0 mm 1 mps 756 mmHg 79%
    18:00 +22°C° 0 mm 1 mps 757 mmHg 84%
    19:00 +22°C° 0 mm 1 mps 757 mmHg 89%
    20:00 +21°C° 0 mm 1 mps 757 mmHg 90%
    21:00 +21°C° 0 mm 1 mps 757 mmHg 91%
    22:00 +21°C° 0 mm 1 mps 757 mmHg 92%
    23:00 +21°C° 0.4 mm 1 mps 757 mmHg 93%

    Tomorrow, 24 July, Wednesday

    Time Temperature Precipitation Wind Pressure Humidity
    00:00 +20°C° 0.4 mm 1 mps 757 mmHg 94%
    01:00 +20°C° 0.4 mm 1 mps 757 mmHg 95%
    02:00 +20°C° 0.4 mm 1 mps 757 mmHg 95%
    03:00 +20°C° 0.4 mm 1 mps 757 mmHg 95%
    04:00 +20°C° 0.4 mm 1 mps 756 mmHg 95%
    05:00 +20°C° 0 mm 1 mps 757 mmHg 94%
    06:00 +20°C° 0 mm 1 mps 757 mmHg 94%
    07:00 +19°C° 0 mm 2 mps 758 mmHg 93%
    08:00 +21°C° 0 mm 2 mps 758 mmHg 81%
    09:00 +24°C° 0 mm 2 mps 758 mmHg 70%
    10:00 +26°C° 0 mm 3 mps 758 mmHg 58%
    11:00 +28°C° 0 mm 2 mps 758 mmHg 52%
    12:00 +29°C° 0 mm 2 mps 758 mmHg 46%
    13:00 +30°C° 0 mm 2 mps 757 mmHg 40%
    14:00 +29°C° 0 mm 2 mps 757 mmHg 46%
    15:00 +28°C° 0 mm 1 mps 757 mmHg 51%
    16:00 +27°C° 0 mm 1 mps 757 mmHg 56%
    17:00 +26°C° 0 mm 1 mps 758 mmHg 63%
    18:00 +24°C° 0 mm 1 mps 758 mmHg 71%
    19:00 +23°C° 0 mm 1 mps 759 mmHg 78%
    20:00 +22°C° 0 mm 1 mps 759 mmHg 81%
    21:00 +21°C° 0 mm 1 mps 759 mmHg 84%
    22:00 +20°C° 0 mm 1 mps 760 mmHg 88%
    23:00 +20°C° 0 mm 1 mps 760 mmHg 86%

    Day after tomorrow, 25 July, Thursday

    Time Temperature Precipitation Wind Pressure Humidity
    00:00 +20°C° 0 mm 1 mps 760 mmHg 85%
    01:00 +17°C° 0 mm 0 mps 760 mmHg 84%
    02:00 +19°C° 0 mm 1 mps 760 mmHg 83%
    03:00 +19°C° 0 mm 1 mps 761 mmHg 83%
    04:00 +18°C° 0 mm 1 mps 761 mmHg 82%
    05:00 +19°C° 0 mm 1 mps 761 mmHg 77%
    06:00 +20°C° 0 mm 1 mps 761 mmHg 73%
    07:00 +20°C° 0 mm 2 mps 762 mmHg 69%
    08:00 +24°C° 0 mm 1 mps 762 mmHg 61%
    09:00 +26°C° 0 mm 1 mps 762 mmHg 53%
    10:00 +29°C° 0 mm 1 mps 762 mmHg 46%
    11:00 +30°C° 0 mm 1 mps 762 mmHg 42%
    12:00 +31°C° 0 mm 1 mps 762 mmHg 38%
    13:00 +32°C° 0 mm 1 mps 762 mmHg 35%
    14:00 +31°C° 0 mm 1 mps 762 mmHg 37%
    15:00 +30°C° 0 mm 2 mps 762 mmHg 39%
    16:00 +30°C° 0 mm 2 mps 761 mmHg 42%
    17:00 +28°C° 0 mm 2 mps 762 mmHg 51%
    18:00 +26°C° 0 mm 2 mps 762 mmHg 60%
    19:00 +24°C° 0 mm 1 mps 763 mmHg 69%
    20:00 +23°C° 0 mm 1 mps 763 mmHg 72%
    21:00 +22°C° 0 mm 1 mps 763 mmHg 74%
    22:00 +21°C° 0 mm 1 mps 764 mmHg 77%
    23:00 +21°C° 0 mm 1 mps 764 mmHg 76%

    26 July, Friday

    Time Temperature Precipitation Wind Pressure Humidity
    00:00 +19°C° 0 mm 0 mps 764 mmHg 76%
    01:00 +18°C° 0 mm 0 mps 764 mmHg 75%
    02:00 +18°C° 0 mm 0 mps 764 mmHg 75%
    03:00 +18°C° 0 mm 0 mps 764 mmHg 75%
    04:00 +18°C° 0 mm 0 mps 764 mmHg 75%
    05:00 +20°C° 0 mm 0 mps 764 mmHg 72%
    06:00 +21°C° 0 mm 0 mps 765 mmHg 69%
    07:00 +23°C° 0 mm 0 mps 765 mmHg 66%
    08:00 +25°C° 0 mm 0 mps 765 mmHg 59%
    09:00 +29°C° 0 mm 1 mps 765 mmHg 52%
    10:00 +31°C° 0 mm 1 mps 766 mmHg 44%
    11:00 +32°C° 0 mm 1 mps 765 mmHg 42%
    12:00 +34°C° 0 mm 2 mps 765 mmHg 39%
    13:00 +34°C° 0 mm 2 mps 765 mmHg 36%
    14:00 +34°C° 0 mm 2 mps 765 mmHg 39%
    15:00 +32°C° 0 mm 2 mps 765 mmHg 41%
    16:00 +31°C° 0 mm 3 mps 765 mmHg 44%
    17:00 +29°C° 0 mm 2 mps 765 mmHg 53%
    18:00 +27°C° 0 mm 2 mps 765 mmHg 62%
    19:00 +25°C° 0 mm 2 mps 765 mmHg 71%
    20:00 +25°C° 0 mm 2 mps 765 mmHg 72%
    21:00 +24°C° 0 mm 2 mps 766 mmHg 73%
    22:00 +23°C° 0 mm 2 mps 766 mmHg 74%
    23:00 +23°C° 0 mm 1 mps 766 mmHg 75%

    27 July, Saturday

    Time Temperature Precipitation Wind Pressure Humidity
    00:00 +22°C° 0 mm 1 mps 766 mmHg 77%
    01:00 +22°C° 0 mm 1 mps 766 mmHg 79%
    02:00 +20°C° 0 mm 0 mps 766 mmHg 79%
    03:00 +19°C° 0 mm 0 mps 766 mmHg 80%
    04:00 +19°C° 0 mm 0 mps 766 mmHg 81%
    05:00 +21°C° 0 mm 0 mps 766 mmHg 77%
    06:00 +22°C° 0 mm 0 mps 767 mmHg 73%
    07:00 +24°C° 0 mm 0 mps 767 mmHg 68%
    08:00 +28°C° 0 mm 1 mps 767 mmHg 61%
    09:00 +30°C° 0 mm 1 mps 767 mmHg 54%
    10:00 +32°C° 0 mm 1 mps 767 mmHg 47%
    11:00 +34°C° 0 mm 2 mps 767 mmHg 45%
    12:00 +34°C° 0 mm 3 mps 767 mmHg 42%
    13:00 +35°C° 0 mm 3 mps 766 mmHg 39%
    14:00 +34°C° 0 mm 3 mps 766 mmHg 43%
    15:00 +33°C° 0 mm 4 mps 766 mmHg 46%
    16:00 +32°C° 0 mm 4 mps 766 mmHg 49%
    17:00 +30°C° 0 mm 4 mps 766 mmHg 58%
    18:00 +28°C° 0 mm 3 mps 766 mmHg 66%
    19:00 +26°C° 0 mm 3 mps 766 mmHg 74%
    20:00 +25°C° 0 mm 2 mps 766 mmHg 76%
    21:00 +24°C° 0 mm 2 mps 766 mmHg 78%
    22:00 +24°C° 0 mm 2 mps 766 mmHg 79%
    23:00 +23°C° 0 mm 2 mps 766 mmHg 81%

    28 July, Sunday

    Time Temperature Precipitation Wind Pressure Humidity
    00:00 +23°C° 0 mm 2 mps 766 mmHg 82%
    01:00 +23°C° 0 mm 2 mps 766 mmHg 83%
    02:00 +22°C° 0 mm 1 mps 766 mmHg 85%
    03:00 +22°C° 0 mm 1 mps 766 mmHg 87%
    04:00 +22°C° 0 mm 1 mps 766 mmHg 89%
    05:00 +23°C° 0 mm 1 mps 766 mmHg 83%
    06:00 +25°C° 0 mm 1 mps 766 mmHg 78%
    07:00 +26°C° 0 mm 1 mps 766 mmHg 73%
    08:00 +28°C° 0 mm 2 mps 766 mmHg 64%
    09:00 +30°C° 0 mm 2 mps 766 mmHg 55%
    10:00 +32°C° 0 mm 2 mps 766 mmHg 46%
    11:00 +34°C° 0 mm 2 mps 765 mmHg 44%
    12:00 +34°C° 0 mm 3 mps 765 mmHg 41%
    13:00 +35°C° 0 mm 3 mps 764 mmHg 39%
    14:00 +34°C° 0 mm 3 mps 764 mmHg 42%
    15:00 +34°C° 0 mm 4 mps 764 mmHg 45%
    16:00 +33°C° 0 mm 4 mps 763 mmHg 48%
    17:00 +30°C° 0 mm 4 mps 763 mmHg 56%
    18:00 +28°C° 0 mm 3 mps 763 mmHg 65%
    19:00 +26°C° 0 mm 3 mps 763 mmHg 73%
    20:00 +25°C° 0 mm 3 mps 764 mmHg 75%
    21:00 +25°C° 0 mm 3 mps 764 mmHg 77%
    22:00 +24°C° 0 mm 2 mps 764 mmHg 79%
    23:00 +24°C° 0 mm 2 mps 764 mmHg 80%
    Show more